sat.trackr.live / text

‹ back to catalog

STARLINK-37871

NORAD 69549 · 2026-135D

PAYLOAD ACTIVE UNKNOWN

§ Identity

Operator
Country
US
Launch date
2026-06-15
Launch site
AFWTR
Launch vehicle
Mass (kg)
RCS (m²)

Purposes: comms

External: N2YO · Heavens-Above · Gunter

§ Orbital elements

Epoch: 2026-09-20T00:31:14.602656Z

Period
93.91 min
Inclination
97.2841°
Eccentricity
0.0001311
Mean motion
15.33459290 rev/d
Perigee alt
464.6 km
Apogee alt
466.4 km
Semi-major
6,843.6 km
B*
4.4491e-4
RAAN
290.6630°
Arg perigee
104.6209°
Mean anomaly
255.5179°
Rev number
1,492

§ Raw data

STARLINK-378711 69549U 26135D   26263.02169679  .00014322  00000+0  44491-3 0  99952 69549  97.2841 290.6630 0001311 104.6209 255.5179 15.33459290 14921

JSON: /api/v1/satellites/69549 · /tle

For live sub-satellite position, see the globe view (requires WebGL).

§ Visibility from observer

Set your observer location to see the next 7 days of passes ≥ 10°. The values pass through the URL so the page stays shareable.

No JS? Fill the form by hand. The geolocation button needs JavaScript.